This is the latest recevied weather packets stored in our database for station/object KD9NSC. If no packets are shown the sender has not sent any weather packets the latest 1 day(s).
| Time | Temp. | Humidity | Pressure | Rain* | Wind** | Luminosity | Snow |
|---|---|---|---|---|---|---|---|
| 1778008599 | 11.11° C | 59% | 1011.1 hPa | 0 mm | 0 m/s | 57 W/m² | - |
| 1778008297 | 11.11° C | 62% | 1011.2 hPa | 0 mm | 0 m/s | 60 W/m² | - |
| 1778007993 | 11.11° C | 56% | 1011.3 hPa | 0 mm | 0 m/s | 57 W/m² | - |
| 1778007693 | 11.11° C | 59% | 1011.3 hPa | 0 mm | 0 m/s | 63 W/m² | - |
| 1778007390 | 11.11° C | 58% | 1011.2 hPa | 0 mm | 0 m/s | 59 W/m² | - |
| 1778007086 | 11.11° C | 57% | 1011.2 hPa | 0 mm | 0.45 m/s, 255° | 70 W/m² | - |
| 1778006783 | 10.56° C | 58% | 1011.3 hPa | 0 mm | 0 m/s | 60 W/m² | - |
| 1778006480 | 10.56° C | 56% | 1011.4 hPa | 0 mm | 0 m/s | 49 W/m² | - |
| 1778006176 | 10.56° C | 61% | 1011.3 hPa | 0 mm | 0 m/s | 47 W/m² | - |
| 1778005874 | 10.56° C | 61% | 1011.5 hPa | 0 mm | 0 m/s | 41 W/m² | - |
| 1778005570 | 10.56° C | 59% | 1011.5 hPa | 0 mm | 0 m/s | 32 W/m² | - |
| 1778005267 | 10.56° C | 60% | 1011.3 hPa | 0 mm | 0 m/s | 34 W/m² | - |
| 1778004964 | 11.11° C | 64% | 1011.3 hPa | 0 mm | 0 m/s | 32 W/m² | - |
| 1778004661 | 11.11° C | 63% | 1011.1 hPa | 0 mm | 0 m/s | 31 W/m² | - |
| 1778004356 | 11.67° C | 55% | 1011.1 hPa | 0 mm | 0 m/s | 39 W/m² | - |
| 1778004055 | 11.67° C | 59% | 1011.3 hPa | 0 mm | 0 m/s | 52 W/m² | - |
| 1778003750 | 11.67° C | 61% | 1011.2 hPa | 0 mm | 0 m/s | 65 W/m² | - |
| 1778003447 | 11.67° C | 62% | 1011.3 hPa | 0 mm | 0 m/s | 68 W/m² | - |
| 1778003144 | 12.22° C | 52% | 1011.2 hPa | 0 mm | 0 m/s | 84 W/m² | - |
| 1778002840 | 12.22° C | 55% | 1011.2 hPa | 0 mm | 0 m/s | 81 W/m² | - |
| 1778002536 | 12.78° C | 58% | 1011.2 hPa | 0 mm | 0 m/s | 89 W/m² | - |
| 1778002233 | 12.78° C | 60% | 1011.3 hPa | 0 mm | 0 m/s | 110 W/m² | - |
| 1778001931 | 13.33° C | 62% | 1011.2 hPa | 0 mm | 0 m/s | 140 W/m² | - |
| 1778001627 | 13.33° C | 61% | 1011.1 hPa | 0 mm | 0 m/s | 142 W/m² | - |
| 1778001323 | 13.33° C | 61% | 1011.1 hPa | 0 mm | 0 m/s | 115 W/m² | - |
* Rain latest hour (hover to see other rain measurements)
** Current wind speed in m/s (hover to see current wind gust speed)